カタログに戻る

DELTA 1 R/B

運用中HEO
NORAD 575·ROCKET BODY·🇺🇸 United States

打ち上げ May 7, 1963 から Cape Canaveral Space Force Station

Loading…

次のパス (今後24時間)

TLE

最新Source: Space-Track

元期: Sep 14, 2026, 01:52 UTC

1 00575U 63013B   26257.07831424 -.00000010  00000-0 -53428-4 0  9990
2 00575  42.7588 191.4590 4004168 323.8048 128.4131  6.40291233481680

AllMySatでDELTA 1 R/Bをリアルタイム追跡

Download on the App Store